Location: Le Rocchette
(44.3500°N, 7.8333°E)
Time: 05:15:42
(UTC+00:00)

NOSS 3-4 (A) - Pass Details

Date: 17 November 2019
Orbit: 907 x 1306 km, 63.4° (Epoch: 11 December)

Event Time Altitude Azimuth Distance (km) Brightness Sun altitude
Exits shadow 04:41:05 14° 327° (NNW) 2,667 5.4 -18.8°
Maximum altitude 04:47:19 68° 49° (NE) 1,238 4.1 -17.7°
Drops below altitude 10° 04:54:58 10° 132° (SE) 3,190 7.1 -16.3°
Sets 04:57:52 0° 135° (SE) 4,197 7.8 -15.8°
